Time,TemperatureF,DewpointF,PressureIn,WindDirection,WindDirectionDegrees,WindSpeedMPH,WindSpeedGustMPH,Humidity,HourlyPrecipIn,Conditions,Clouds,dailyrainin,SoftwareType,DateUTC
2013-06-22 00:29:00,59.1,57.1,30.16,SSW,210,0.0,0.0,93,0.00,,---,0.00,VWS V14.00,2013-06-22 04:29:00,
2013-06-22 00:59:00,59.9,57.6,30.16,SSW,210,0.0,0.0,92,0.00,,---,0.00,VWS V14.00,2013-06-22 04:59:00,
2013-06-22 01:29:00,60.2,57.6,30.15,SSW,210,0.0,0.0,91,0.00,,---,0.00,VWS V14.00,2013-06-22 05:29:00,
2013-06-22 01:59:00,60.7,57.4,30.15,SSW,210,0.0,0.0,89,0.00,,---,0.00,VWS V14.00,2013-06-22 05:59:00,
2013-06-22 02:29:00,61.1,58.2,30.15,SSW,210,2.0,3.0,90,0.00,,---,0.00,VWS V14.00,2013-06-22 06:29:00,
2013-06-22 02:59:00,61.3,59.0,30.15,NNW,333,0.0,0.0,92,0.00,,---,0.00,VWS V14.00,2013-06-22 06:59:00,
2013-06-22 03:29:00,60.9,59.2,30.15,NNW,340,0.0,0.0,94,0.01,,---,0.01,VWS V14.00,2013-06-22 07:29:00,
2013-06-22 03:59:00,60.5,59.1,30.14,WNW,294,0.0,2.0,95,0.02,,---,0.02,VWS V14.00,2013-06-22 07:59:00,
2013-06-22 04:29:00,60.0,58.9,30.13,NE,40,0.0,1.0,96,0.04,,---,0.04,VWS V14.00,2013-06-22 08:29:00,
2013-06-22 04:59:00,59.7,58.6,30.15,NE,40,0.0,0.0,96,0.03,,---,0.04,VWS V14.00,2013-06-22 08:59:00,
2013-06-22 05:29:00,59.5,58.7,30.14,NE,40,0.0,0.0,97,0.04,,---,0.06,VWS V14.00,2013-06-22 09:29:00,
2013-06-22 05:59:00,59.5,58.7,30.13,NE,40,0.0,0.0,97,0.02,,---,0.06,VWS V14.00,2013-06-22 09:59:00,
2013-06-22 06:29:00,59.5,58.9,30.13,NE,40,0.0,0.0,98,0.03,,---,0.07,VWS V14.00,2013-06-22 10:29:00,
2013-06-22 06:59:00,59.6,59.0,30.15,SE,124,0.0,0.0,98,0.02,,---,0.07,VWS V14.00,2013-06-22 10:59:00,
2013-06-22 07:29:00,59.8,59.0,30.14,ESE,118,0.0,0.0,97,0.01,,---,0.07,VWS V14.00,2013-06-22 11:29:00,
2013-06-22 07:59:00,60.2,59.6,30.15,ESE,118,0.0,0.0,98,0.01,,---,0.08,VWS V14.00,2013-06-22 11:59:00,
2013-06-22 08:29:00,60.4,59.5,30.15,ESE,118,0.0,0.0,97,0.02,,---,0.09,VWS V14.00,2013-06-22 12:29:00,
2013-06-22 08:59:00,60.4,59.5,30.15,NE,51,0.0,0.0,97,0.06,,---,0.13,VWS V14.00,2013-06-22 12:59:00,
2013-06-22 09:29:00,60.9,60.0,30.15,NE,48,0.0,0.0,97,0.07,,---,0.15,VWS V14.00,2013-06-22 13:29:00,
2013-06-22 09:59:00,61.8,60.9,30.16,NE,48,0.0,0.0,97,0.07,,---,0.17,VWS V14.00,2013-06-22 13:59:00,
2013-06-22 10:29:00,62.0,61.1,30.15,NE,52,2.0,2.0,97,0.07,,---,0.20,VWS V14.00,2013-06-22 14:29:00,
2013-06-22 10:59:00,62.3,61.2,30.16,ENE,74,0.0,1.0,96,0.06,,---,0.21,VWS V14.00,2013-06-22 14:59:00,
2013-06-22 11:29:00,62.0,60.8,30.15,ENE,78,0.0,1.0,96,0.06,,---,0.22,VWS V14.00,2013-06-22 15:29:00,
2013-06-22 11:59:00,62.2,61.0,30.15,South,178,1.0,3.0,96,0.03,,---,0.23,VWS V14.00,2013-06-22 15:59:00,
2013-06-22 12:29:00,62.6,61.5,30.15,SSE,149,3.0,3.0,96,0.02,,---,0.24,VWS V14.00,2013-06-22 16:29:00,
2013-06-22 12:59:00,63.3,61.8,30.14,East,91,2.0,2.0,95,0.02,,---,0.24,VWS V14.00,2013-06-22 16:59:00,
2013-06-22 13:29:00,63.1,61.9,30.15,East,80,3.0,3.0,96,0.02,,---,0.24,VWS V14.00,2013-06-22 17:29:00,
2013-06-22 13:59:00,62.7,61.2,30.14,NNE,26,1.0,2.0,95,0.01,,---,0.24,VWS V14.00,2013-06-22 17:59:00,
2013-06-22 14:29:00,62.8,61.7,30.13,East,84,5.0,6.0,96,0.02,,---,0.26,VWS V14.00,2013-06-22 18:29:00,
2013-06-22 14:59:00,62.0,60.8,30.13,ENE,59,1.0,3.0,96,0.06,,---,0.30,VWS V14.00,2013-06-22 18:59:00,
2013-06-22 15:29:00,61.9,61.0,30.12,ENE,78,2.0,5.0,97,0.07,,---,0.31,VWS V14.00,2013-06-22 19:29:00,
2013-06-22 15:59:00,62.0,61.1,30.11,East,94,3.0,5.0,97,0.06,,---,0.32,VWS V14.00,2013-06-22 19:59:00,
2013-06-22 16:29:00,61.6,60.5,30.10,NE,55,1.0,3.0,96,0.04,,---,0.34,VWS V14.00,2013-06-22 20:29:00,
2013-06-22 16:59:00,61.6,60.7,30.10,East,86,3.0,3.0,97,0.06,,---,0.38,VWS V14.00,2013-06-22 20:59:00,
2013-06-22 17:29:00,61.4,60.5,30.10,NE,41,1.0,2.0,97,0.08,,---,0.40,VWS V14.00,2013-06-22 21:29:00,
2013-06-22 17:59:00,61.2,60.3,30.09,NE,44,4.0,4.0,97,0.11,,---,0.45,VWS V14.00,2013-06-22 21:59:00,
2013-06-22 18:29:00,60.9,60.3,30.08,ENE,69,0.0,3.0,98,0.09,,---,0.46,VWS V14.00,2013-06-22 22:29:00,
2013-06-22 18:59:00,60.8,60.2,30.07,ENE,69,2.0,3.0,98,0.11,,---,0.51,VWS V14.00,2013-06-22 22:59:00,
2013-06-22 19:29:00,60.6,60.0,30.07,NE,42,0.0,0.0,98,0.14,,---,0.59,VWS V14.00,2013-06-22 23:29:00,
2013-06-22 19:59:00,60.7,60.1,30.08,NE,42,0.0,0.0,98,0.13,,---,0.59,VWS V14.00,2013-06-22 23:59:00,
2013-06-22 20:29:00,60.7,60.4,30.08,NE,42,0.0,0.0,99,0.09,,---,0.61,VWS V14.00,2013-06-23 00:29:00,
2013-06-22 20:59:00,60.7,60.4,30.08,NE,42,0.0,0.0,99,0.07,,---,0.66,VWS V14.00,2013-06-23 00:59:00,
2013-06-22 21:29:00,60.6,60.3,30.09,NE,48,1.0,1.0,99,0.09,,---,0.68,VWS V14.00,2013-06-23 01:29:00,
2013-06-22 21:59:00,60.5,60.2,30.09,NE,55,0.0,2.0,99,0.08,,---,0.69,VWS V14.00,2013-06-23 01:59:00,
2013-06-22 22:29:00,60.4,60.1,30.09,NE,39,2.0,3.0,99,0.04,,---,0.70,VWS V14.00,2013-06-23 02:29:00,
2013-06-22 22:59:00,60.4,60.1,30.08,NE,51,0.0,0.0,99,0.02,,---,0.70,VWS V14.00,2013-06-23 02:59:00,
2013-06-22 23:29:00,60.3,60.0,30.09,NE,51,0.0,0.0,99,0.02,,---,0.70,VWS V14.00,2013-06-23 03:29:00,
2013-06-22 23:59:00,60.3,60.0,30.09,NE,51,0.0,1.0,99,0.01,,---,0.00,VWS V14.00,2013-06-23 03:59:00,